64492 station(s) have been heard in the last 24 hours.

<< 68 69 70 71 72 73 74 >>
  Name/Id Latest heard Comment/Other Map
Symbol OM0OUJ 1788471437 438.875MHz T077 - FM repeater, Velka Javorina 971m Map
Symbol K9ADS-9 1788471437 Map
Symbol M9THU-D 1788471437 70cm MMDVM Voice (DMR) 438.80000MHz +0.0000MHz, APRS for DMRGateway Map
Symbol IR1BP 1788471437 .. digipeater Montezemolo (CN) - JN44BJ - 770m. .. Map
Symbol VE3OGS B 1788471437 70cm Voice (D-Star) 442.20000MHz +5.0000MHz, APRS for ircDDBGateway Map
Symbol VK3FJC-8 1788471437 BILLIE Map
Symbol KQ6UT-Y 1788471437 70cm MMDVM Voice (C4FM) 433.16000MHz +0.0000MHz, APRS for YSFGateway Map
Symbol W6RRI 1788471437 RADIO RELAY INTERNATIONAL DIGI Map
Symbol K7DMC 1788471437 @/ Map
Symbol BA4QGE-11 1788471437 BA4QGE APRS iGate 144.640MHz Map
Symbol QFD000383 1788471437 Cromarty, Giru and surrounding areas - Advice - FIRE VEGETATION Map
Symbol BH4WAL-10 1788471437 4.0V Map
Symbol IK8TGH-11 1788471437 R.E.S.Rete Emergenza Sperimentale 144.850 {UIV32N} Map
Symbol S55LG 1788471437 Map
Symbol DL3APY-3 1788471437 Lux:0 WX-BerlStedt Map
Symbol NM4V-1 1788471437 W3,VA2-1 WX3in1Plus2.0 Map
Symbol MM0ZFG-10 1788471437 LoRa APRS Map
Symbol KD8QOF-B 1788471437 440 Voice 444.250 +5.00 MHz Map
Symbol ER-DB0LAU 1788471437 439.100MHz T123 R15k CTCSS 123Hz EL#913697 Map
Symbol OE9XVI-6 1788471437 Map
Symbol RFS675057 1788471437 SUMMERLAND WAY, DILKOON - Bush Fire - Clarence Valley - 70 ha Map
Symbol PY2ARS-B 1788471437 2m Voice (D-Star) 145.05000MHz +0.0000MHz, APRS for ircDDBGateway Map
Symbol KF4LZA C 1788471436 70cm Voice (D-Star) 440.75000MHz +5.0000MHz Map
Symbol SA7BKX-B 1788471436 70cm Voice (D-Star) 433.77500MHz +0.0000MHz Map
Symbol IQ6VP-D 1788471436 70cm MMDVM Voice (DMR) 430.25000MHz +5.0000MHz, APRS for DMRGateway Map
Symbol N1IFU 1788471436 MXP600 Map
Symbol 145.35-WV 1788471436 T103 NET Wed 9pm Map
Symbol IW3BYL B 1788471436 70cm Voice (D-Star) 430.50000MHz +5.0000MHz Map
Symbol DO1MH-12 1788471436 Gateway Grossrohrsdorf/B=039/N10 Map
Symbol KO4WHD-2 1788471436 https://aprs-connect.davystech.net Map
Symbol HK7LT-12 1788471436 DIGI:MAHOMA KANODO:MAH-7 BBSMAH- CERRO MAHOMA BOYACA-HKNET Map
Symbol WA7GJZ-10 1788471436 145.630MHz Winlink Packet Gateway Map
Symbol BG5WIA-1 1788471436 qrz.com/db/BG5WIA Map
Symbol 9W4GKK-3 1788471436 Taiping LoRa APRS iGate - any feedback pls call 9w2nxk Map
Symbol KI7WXR-9 1788471436 Thiokol SnoCat On the move Map
Symbol 442.525+ 1788471436 T103 R40m Skywarn w4mco.org Map
Symbol kj4yre 1788471436 .WD 123 Map
Symbol YACHTS 1788471436 .U21h Map
Symbol SR6UKB-B 1788471436 70cm Voice (D-Star) 439.26250MHz -7.6000MHz Map
Symbol DC1SHM-10 1788471436 PyMultimonAPRS iGate - Raspberry Pi mit NooElec SDR Empfaenger Map
Symbol F1ZMA-10 1788471436 LoRaprs F4HOK & F4KOA Map
Symbol ZS1DOV 1788471436 &Milnerton Disaster Risk Management Map
Symbol BH9FYB-10 1788471436 144.640MHz APRS iGate 2026-09-04 05:37:15 Map
Symbol YD0BCX-2 1788471436 Time: 2026-09-04 05:00:00, Temp: 26C, Desc: Sunny, WS: 3.2 m/s, Hum: 75 % Map
Symbol HP1PAR-5 1788471436 HP1PAR Terminal mvil (RF) Map
Symbol SV2BZQ B 1788471436 70cm Voice (D-Star) 438.57500MHz +0.0000MHz Map
Symbol EA2CW-13 1788471436 Lux:0_WX_APRS_LoRa Map
Symbol F5IBM-R 1788471436 70cm MMDVM Voice (NXDN) 438.87500MHz -7.6000MHz, F5IBM_Pi-Star_RPT Map
Symbol YO2KQT-11 1788471436 LoRa iGATE & Digi, http://www.yo2kqt.ro Map
Symbol G0OSX-B 1788471436 70cm Voice (D-Star) 433.40000MHz +0.0000MHz Map